Location: Hagen
(51.3456°N, 7.4557°E)
Time: 18:34:00
(UTC+01:00)

Amateur Radio Satellites - All Passes

Search period start: 19 January 2018 18:04
Search period end: 20 January 2018 18:04
Location: Hagen, 51.3456°N, 7.4557°E

Satellite Date Start Highest point End Downlink Frequencies (MHz)
Time Altitude Azimuth
SEEDS 19 Jan 18:06:43 18:10:37 37° 67° (ENE) 18:14:30 437.485
CUBEBUG 2 19 Jan 18:08:37 18:12:46 42° 68° (ENE) 18:17:05 437.445
BEESAT 2 19 Jan 18:09:43 18:13:11 26° 32° (NNE) 18:16:37 435.950
CUTE 1.7 + AOD 2 19 Jan 18:15:15 18:19:30 70° 73° (ENE) 18:23:47 437.475
CUTE-I 19 Jan 18:16:56 18:22:08 54° 259° (W) 18:27:23 437.470
UWE-3 19 Jan 18:18:02 18:22:00 32° 65° (ENE) 18:26:05 435.000/436.395/437.385
LilacSat-2 19 Jan 18:18:50 18:22:17 30° 265° (W) 18:25:44 437.200
XW-2C 19 Jan 18:23:28 18:26:51 29° 265° (W) 18:30:15 145.795 - 145.815
BEESAT 19 Jan 18:28:24 18:30:11 12° 310° (NW) 18:32:00 436.000
XW-2A 19 Jan 18:32:32 18:35:17 23° 65° (ENE) 18:38:01 145.665 - 145.685
CUBESAT XI-V 19 Jan 18:33:08 18:36:03 17° 304° (NW) 18:38:55 437.345
PCSat 19 Jan 18:33:37 18:38:59 55° 46° (NE) 18:44:18 145.827
HO-68 19 Jan 18:35:00 18:42:10 77° 254° (WSW) 18:49:23 435.675
AO-85 19 Jan 18:35:20 18:38:49 20° 20° (NNE) 18:42:29 145.980
KKS-1 19 Jan 18:38:48 18:43:12 60° 290° (WNW) 18:47:35 437.445
ZACube-1 19 Jan 18:45:45 18:49:45 33° 65° (ENE) 18:53:51 437.345
NO-84 19 Jan 18:51:06 18:53:55 42° 147° (SSE) 18:56:39 435.350 FM
AO-73 19 Jan 18:53:35 18:57:38 35° 66° (ENE) 19:01:46 145.935
STARS 19 Jan 18:59:47 19:04:13 84° 287° (WNW) 19:08:39 437.465
XW-2F 19 Jan 19:03:26 19:05:21 13° 272° (W) 19:07:16 145.980 - 146.000
BEESAT 3 19 Jan 19:03:44 19:07:34 51° 235° (SW) 19:11:20 437.485
KAITUO 1B 19 Jan 19:04:18 19:06:40 16° 270° (W) 19:09:01 145.475/437.950
STRAND 1 19 Jan 19:08:43 19:12:49 23° 92° (E) 19:16:55 437.568
NUDT-PHONESAT 19 Jan 19:19:38 19:21:04 12° 272° (W) 19:22:32 437.300
Oscar 11 19 Jan 19:28:43 19:32:53 47° 69° (ENE) 19:37:05 .
AAUSAT CUBESAT 2 19 Jan 19:28:58 19:33:06 76° 257° (WSW) 19:37:15 437.432
FO-29 19 Jan 19:33:03 19:36:28 17° 87° (E) 19:39:49 435.910
SEEDS 19 Jan 19:42:45 19:46:22 27° 266° (W) 19:50:00 437.485
CUBEBUG 2 19 Jan 19:45:49 19:49:33 27° 268° (W) 19:53:25 437.445
RS-15 19 Jan 19:47:08 19:56:00 27° 259° (W) 20:04:35 29.354- 29.394
BEESAT 2 19 Jan 19:47:13 19:51:14 65° 233° (SW) 19:55:10 435.950
Max Valier Satellite 19 Jan 19:51:12 19:52:40 12° 57° (ENE) 19:54:10 145.860
CUTE 1.7 + AOD 2 19 Jan 19:53:16 19:55:48 15° 272° (W) 19:58:22 437.475
UWE-3 19 Jan 19:54:18 19:58:24 36° 264° (W) 20:02:38 435.000/436.395/437.385
XW-2A 19 Jan 20:04:45 20:07:49 31° 263° (W) 20:10:56 145.665 - 145.685
EO-88 19 Jan 20:13:38 20:15:31 14° 59° (ENE) 20:17:23 145.990 - 145.960
AO-85 19 Jan 20:15:29 20:20:11 55° 42° (NE) 20:25:13 145.980
PCSat 19 Jan 20:17:21 20:22:11 33° 247° (WSW) 20:26:58 145.827
KKS-1 19 Jan 20:17:56 20:18:52 11° 309° (NW) 20:19:48 437.445
ZACube-1 19 Jan 20:21:54 20:25:59 35° 264° (W) 20:30:12 437.345
DELFI C3 19 Jan 20:22:23 20:25:54 33° 67° (ENE) 20:29:27 145.870
HO-68 19 Jan 20:26:35 20:31:07 18° 275° (W) 20:35:40 435.675
NO-84 19 Jan 20:28:15 20:31:03 47° 346° (NNW) 20:33:49 435.350 FM
AO-73 19 Jan 20:29:49 20:33:52 33° 265° (W) 20:38:00 145.935
STARS 19 Jan 20:37:37 20:39:54 14° 306° (NW) 20:42:10 437.465
STRAND 1 19 Jan 20:47:20 20:52:23 60° 291° (WNW) 20:57:27 437.568
Oscar 11 19 Jan 21:05:47 21:09:16 23° 268° (W) 21:12:46 .
FO-29 19 Jan 21:17:02 21:22:21 77° 288° (WNW) 21:27:32 435.910
Max Valier Satellite 19 Jan 21:22:09 21:25:54 86° 261° (W) 21:29:41 145.860
ESTCUBE 1 19 Jan 21:29:06 21:31:52 16° 56° (NE) 21:34:38 437.505/2401.250
LO-87 19 Jan 21:37:44 21:39:59 16° 61° (ENE) 21:42:14 145.935 - 145.965
nSIGHT-1 19 Jan 21:41:13 21:43:30 18° 144° (SE) 21:45:47 .
EO-88 19 Jan 21:45:01 21:48:39 70° 258° (WSW) 21:52:20 145.990 - 145.960
ISS 19 Jan 21:47:57 21:50:05 16° 142° (SE) 21:52:13 437.550
AO-85 19 Jan 21:56:07 22:00:30 33° 240° (WSW) 22:05:07 145.980
DELFI C3 19 Jan 21:57:21 22:00:41 26° 266° (W) 22:04:02 145.870
YUBILEINY 19 Jan 21:59:59 22:06:13 22° 74° (ENE) 22:12:25 435.215
TIGRISAT 19 Jan 22:03:32 22:08:05 46° 98° (E) 22:12:36 435.000
NO-84 19 Jan 22:05:50 22:08:32 39° 8° (N) 22:11:15 435.350 FM
UNISAT 6 19 Jan 22:18:19 22:23:01 67° 101° (E) 22:27:42 437.425
STRAND 1 19 Jan 22:28:26 22:30:36 13° 311° (NW) 22:32:46 437.568
AIST 2D 19 Jan 22:47:09 22:49:06 14° 90° (E) 22:51:03 435.315
PRISM 19 Jan 23:00:04 23:03:56 40° 99° (E) 23:07:47 437.425
ESTCUBE 1 19 Jan 23:03:32 23:08:04 85° 253° (WSW) 23:12:38 437.505/2401.250
FO-29 19 Jan 23:03:40 23:06:36 15° 310° (NW) 23:09:27 435.910
LO-87 19 Jan 23:09:32 23:13:00 53° 259° (W) 23:16:33 145.935 - 145.965
VELOX 1 19 Jan 23:11:16 23:14:40 22° 60° (ENE) 23:18:04 145.980
nSIGHT-1 19 Jan 23:16:07 23:19:15 65° 163° (SSE) 23:22:24 .
NANOSAT C BR1 19 Jan 23:19:22 23:20:29 11° 85° (E) 23:21:35 145.865
SPROUT 19 Jan 23:19:39 23:23:36 39° 67° (ENE) 23:27:36 437.525
ISS 19 Jan 23:22:51 23:26:05 59° 160° (SSE) 23:29:19 437.550
QB50P2 19 Jan 23:30:17 23:33:12 18° 90° (E) 23:36:06 145.880/145.840
DX 1 19 Jan 23:35:29 23:36:10 10° 51° (NE) 23:36:50 434.975-435.025
TIGRISAT 19 Jan 23:40:34 23:44:34 28° 297° (WNW) 23:48:34 435.000
NO-84 19 Jan 23:42:59 23:45:48 70° 209° (SSW) 23:48:42 435.350 FM
YUBILEINY 19 Jan 23:52:53 00:01:43 83° 97° (E) 00:10:33 435.215
UNISAT 6 19 Jan 23:55:49 23:59:17 21° 301° (WNW) 00:02:45 437.425
EO-79 20 Jan 00:01:10 00:04:58 30° 95° (E) 00:08:46 145.935-145.965
DUCHIFAT 1 20 Jan 00:02:06 00:05:37 24° 93° (E) 00:09:06 145.980
AIST 2D 20 Jan 00:19:10 00:22:34 50° 288° (WNW) 00:25:56 435.315
POLYITAN 1 20 Jan 00:35:29 00:39:47 64° 102° (ESE) 00:44:01 437.675
PRISM 20 Jan 00:35:41 00:39:02 25° 297° (WNW) 00:42:22 437.425
ESTCUBE 1 20 Jan 00:43:51 00:45:36 12° 274° (W) 00:47:21 437.505/2401.250
Oscar 19 20 Jan 00:44:23 00:46:52 13° 85° (E) 00:49:20 437.125/150
VELOX 1 20 Jan 00:46:30 00:50:48 53° 259° (W) 00:55:07 145.980
nSIGHT-1 20 Jan 00:52:14 00:55:25 83° 3° (N) 00:58:37 .
NANOSAT C BR1 20 Jan 00:52:34 00:56:53 84° 104° (ESE) 01:01:09 145.865
MOZHAYETS 4 20 Jan 00:52:35 00:54:30 12° 52° (NE) 00:56:25
SPROUT 20 Jan 00:56:01 00:59:36 26° 266° (W) 01:03:14 437.525
UKube-1 20 Jan 00:59:01 01:02:52 33° 65° (ENE) 01:06:46 .
ISS 20 Jan 00:59:15 01:02:32 83° 357° (N) 01:05:50 437.550
QB50P2 20 Jan 01:05:07 01:09:23 61° 289° (WNW) 01:13:36 145.880/145.840
DX 1 20 Jan 01:07:13 01:11:29 60° 70° (ENE) 01:15:46 434.975-435.025
O/OREOS (USA 219) 20 Jan 01:08:45 01:13:03 45° 111° (ESE) 01:17:21 437.305
BUGSAT 1 20 Jan 01:09:14 01:12:58 29° 95° (E) 01:16:42 437.445
50 SAT 20 Jan 01:15:50 01:18:53 62° 73° (ENE) 01:21:58 437.505
NO-84 20 Jan 01:21:17 01:22:30 12° 226° (SW) 01:23:45 435.350 FM
EO-79 20 Jan 01:36:51 01:40:45 35° 294° (WNW) 01:44:39 145.935-145.965
DUCHIFAT 1 20 Jan 01:37:23 01:41:26 42° 292° (WNW) 01:45:28 145.980
ITUPSAT 1 20 Jan 01:43:00 01:46:35 21° 58° (ENE) 01:50:12 437.325
AO-91 20 Jan 01:49:59 01:54:08 51° 100° (E) 01:58:45 145.960
YUBILEINY 20 Jan 01:52:11 01:59:38 30° 302° (WNW) 02:07:07 435.215
Gurwin Techsat 1B 20 Jan 01:56:15 02:01:15 40° 97° (E) 02:06:14 435.225
POLYITAN 1 20 Jan 02:12:07 02:15:07 19° 301° (WNW) 02:18:07 437.675
Oscar 19 20 Jan 02:21:49 02:27:03 80° 105° (ESE) 02:32:13 437.125/150
BEESAT 20 Jan 02:22:30 02:27:00 43° 66° (ENE) 02:31:31 436.000
MOZHAYETS 4 20 Jan 02:26:12 02:30:48 68° 72° (ENE) 02:35:28
CUBESAT XI-V 20 Jan 02:26:38 02:30:19 23° 60° (ENE) 02:34:00 437.345
nSIGHT-1 20 Jan 02:28:26 02:31:32 51° 202° (SSW) 02:34:39 .
NANOSAT C BR1 20 Jan 02:29:34 02:32:00 15° 303° (WNW) 02:34:27 145.865
UKube-1 20 Jan 02:35:02 02:38:54 32° 264° (W) 02:42:47 .
ISS 20 Jan 02:35:45 02:38:59 59° 200° (SSW) 02:42:14 437.550
AO-7 20 Jan 02:43:33 02:49:49 23° 88° (E) 02:56:02 .
QB50P2 20 Jan 02:43:51 02:44:18 10° 308° (NW) 02:44:45 145.880/145.840
BUGSAT 1 20 Jan 02:44:28 02:48:21 36° 294° (WNW) 02:52:14 437.445
DX 1 20 Jan 02:45:04 02:48:03 18° 269° (W) 02:51:02 434.975-435.025
O/OREOS (USA 219) 20 Jan 02:48:41 02:52:38 29° 311° (NW) 02:56:36 437.305
ITUPSAT 1 20 Jan 03:19:14 03:23:59 67° 257° (WSW) 03:28:48 437.325
ITAMSAT 1 20 Jan 03:25:34 03:29:30 21° 91° (E) 03:33:25 435.822/435.867
AO-91 20 Jan 03:27:04 03:30:25 23° 296° (WNW) 03:34:01 145.960
Gurwin Techsat 1B 20 Jan 03:36:19 03:41:12 38° 297° (WNW) 03:46:03 435.225
BEESAT 20 Jan 04:00:45 04:04:54 29° 265° (W) 04:09:06 436.000
Oscar 19 20 Jan 04:02:04 04:05:48 20° 305° (NW) 04:09:31 437.125/150
CUBESAT XI-V 20 Jan 04:02:44 04:07:22 57° 260° (W) 04:12:00 437.345
DOVE 4 20 Jan 04:03:35 04:05:22 12° 87° (E) 04:07:11 437.250
MOZHAYETS 4 20 Jan 04:05:17 04:08:26 18° 271° (W) 04:11:37
nSIGHT-1 20 Jan 04:05:31 04:07:10 13° 220° (SW) 04:08:48 .
KKS-1 20 Jan 04:05:39 04:09:37 33° 65° (ENE) 04:13:36 437.445
ISS 20 Jan 04:12:50 04:15:00 16° 218° (SW) 04:17:09 437.550
STARS 20 Jan 04:25:57 04:29:26 24° 61° (ENE) 04:32:57 437.465
AO-7 20 Jan 04:35:22 04:43:50 84° 111° (ESE) 04:52:12 .
STRAND 1 20 Jan 04:54:31 04:56:16 12° 48° (NE) 04:58:01 437.568
M-CUBED/EXP-1 PRIME 20 Jan 04:57:20 04:59:51 19° 98° (E) 05:02:15 437.505
ITAMSAT 1 20 Jan 05:04:16 05:09:27 67° 290° (WNW) 05:14:37 435.822/435.867
SO-50 20 Jan 05:30:28 05:33:30 18° 113° (ESE) 05:36:33 436.795
DOVE 4 20 Jan 05:39:22 05:43:39 88° 291° (WNW) 05:48:08 437.250
KKS-1 20 Jan 05:42:09 05:46:10 33° 263° (W) 05:50:13 437.445
LilacSat-2 20 Jan 05:46:45 05:49:36 20° 92° (E) 05:52:27 437.200
XW-2C 20 Jan 05:50:36 05:53:28 20° 92° (E) 05:56:19 145.795 - 145.815
FO-29 20 Jan 05:51:06 05:55:33 20° 54° (NE) 05:59:41 435.910
HO-68 20 Jan 05:58:18 06:02:34 16° 84° (E) 06:06:50 435.675
STARS 20 Jan 06:01:18 06:05:31 49° 260° (W) 06:09:48 437.465
XW-2F 20 Jan 06:27:41 06:31:19 45° 99° (E) 06:34:54 145.980 - 146.000
KAITUO 1B 20 Jan 06:28:15 06:31:41 35° 97° (E) 06:35:06 145.475/437.950
CUTE-I 20 Jan 06:28:22 06:33:24 40° 98° (E) 06:38:23 437.470
AO-7 20 Jan 06:28:44 06:35:50 33° 313° (NW) 06:42:57 .
STRAND 1 20 Jan 06:29:26 06:34:24 55° 68° (ENE) 06:39:24 437.568
M-CUBED/EXP-1 PRIME 20 Jan 06:31:13 06:34:27 36° 298° (WNW) 06:37:31 437.505
XW-2D 20 Jan 06:36:14 06:40:00 63° 101° (ESE) 06:43:43 145.860 - 145.880
NUDT-PHONESAT 20 Jan 06:41:26 06:45:01 46° 99° (E) 06:48:33 437.300
ITAMSAT 1 20 Jan 06:45:20 06:48:01 14° 310° (NW) 06:50:43 435.822/435.867
XW-2B 20 Jan 06:53:47 06:57:36 87° 280° (W) 07:01:20 145.730 - 145.750
AAUSAT CUBESAT 2 20 Jan 07:07:19 07:08:58 12° 87° (E) 07:10:36 437.432
SO-50 20 Jan 07:08:54 07:13:23 80° 312° (NW) 07:18:00 436.795
DOVE 4 20 Jan 07:18:40 07:20:47 14° 303° (WNW) 07:22:55 437.250
SEEDS 20 Jan 07:20:24 07:24:14 34° 96° (E) 07:28:02 437.485
LilacSat-2 20 Jan 07:20:27 07:24:04 41° 290° (WNW) 07:27:38 437.200
XW-2A 20 Jan 07:22:14 07:23:19 11° 88° (E) 07:24:24 145.665 - 145.685
XW-2C 20 Jan 07:24:15 07:27:49 40° 291° (WNW) 07:31:20 145.795 - 145.815
CUBEBUG 2 20 Jan 07:29:59 07:34:36 48° 99° (E) 07:39:12 437.445
CUTE 1.7 + AOD 2 20 Jan 07:30:24 07:34:38 68° 102° (ESE) 07:38:48 437.475
FO-29 20 Jan 07:33:14 07:40:01 84° 72° (ENE) 07:45:59 435.910
TIGRISAT 20 Jan 07:33:37 07:35:29 12° 52° (NE) 07:37:21 435.000
UWE-3 20 Jan 07:38:00 07:42:19 35° 95° (E) 07:46:33 435.000/436.395/437.385
HO-68 20 Jan 07:44:25 07:51:36 73° 105° (ESE) 07:58:45 435.675
UNISAT 6 20 Jan 07:47:21 07:50:13 17° 57° (ENE) 07:53:09 437.425
YUBILEINY 20 Jan 08:00:43 08:05:58 17° 44° (NE) 08:11:11 435.215
XW-2F 20 Jan 08:02:25 08:05:09 19° 298° (WNW) 08:07:52 145.980 - 146.000
KAITUO 1B 20 Jan 08:02:32 08:05:30 23° 296° (WNW) 08:08:27 145.475/437.950
RS-15 20 Jan 08:02:44 08:13:41 40° 109° (ESE) 08:24:27 29.354- 29.394
ZACube-1 20 Jan 08:04:24 08:08:36 34° 95° (E) 08:12:43 437.345
CUTE-I 20 Jan 08:08:33 08:13:25 37° 297° (WNW) 08:18:17 437.470
STRAND 1 20 Jan 08:09:44 08:13:54 25° 268° (W) 08:18:08 437.568
XW-2D 20 Jan 08:11:29 08:13:43 15° 300° (WNW) 08:15:57 145.860 - 145.880
AO-73 20 Jan 08:11:54 08:16:06 35° 95° (E) 08:20:15 145.935
NUDT-PHONESAT 20 Jan 08:15:57 08:18:33 18° 298° (WNW) 08:21:08 437.300
AO-7 20 Jan 08:22:35 08:26:05 13° 338° (NNW) 08:29:37 .
XW-2B 20 Jan 08:29:57 08:31:08 11° 304° (WNW) 08:32:18 145.730 - 145.750
AAUSAT CUBESAT 2 20 Jan 08:40:52 08:44:59 83° 287° (WNW) 08:49:05 437.432
Oscar 11 20 Jan 08:46:25 08:50:38 47° 99° (E) 08:54:48 .
SO-50 20 Jan 08:50:50 08:54:32 24° 336° (NNW) 08:58:18 436.795
XW-2A 20 Jan 08:53:03 08:56:24 62° 287° (WNW) 08:59:43 145.665 - 145.685
SEEDS 20 Jan 08:56:13 08:59:51 29° 295° (WNW) 09:03:27 437.485
TIGRISAT 20 Jan 09:06:54 09:11:19 71° 73° (ENE) 09:15:54 435.000
CUBEBUG 2 20 Jan 09:06:58 09:10:59 28° 297° (WNW) 09:14:59 437.445
CUTE 1.7 + AOD 2 20 Jan 09:07:14 09:10:00 17° 301° (WNW) 09:12:46 437.475
UWE-3 20 Jan 09:14:28 09:18:45 36° 294° (WNW) 09:22:59 435.000/436.395/437.385
FO-29 20 Jan 09:20:48 09:25:41 21° 270° (W) 09:30:11 435.910
UNISAT 6 20 Jan 09:21:54 09:26:21 79° 256° (WSW) 09:30:57 437.425
PCSat 20 Jan 09:23:07 09:26:02 15° 104° (ESE) 09:28:56 145.827
AIST 2D 20 Jan 09:26:34 09:28:21 13° 60° (ENE) 09:30:07 435.315
DELFI C3 20 Jan 09:28:10 09:31:29 26° 94° (E) 09:34:49 145.870
HO-68 20 Jan 09:32:43 09:38:51 32° 306° (NW) 09:44:56 435.675
O/OREOS (USA 219) 20 Jan 09:34:15 09:38:22 34° 51° (NE) 09:42:28 437.305
ZACube-1 20 Jan 09:40:42 09:44:52 35° 294° (WNW) 09:48:59 437.345
AO-73 20 Jan 09:48:11 09:52:18 33° 295° (WNW) 09:56:20 145.935
PRISM 20 Jan 09:53:47 09:57:46 58° 71° (ENE) 10:01:47 437.425
YUBILEINY 20 Jan 09:56:36 10:05:13 56° 71° (ENE) 10:13:43 435.215
POLYITAN 1 20 Jan 09:59:22 10:01:39 14° 56° (NE) 10:03:56 437.675
RS-15 20 Jan 10:12:54 10:25:19 82° 314° (NW) 10:37:25 29.354- 29.394
NANOSAT C BR1 20 Jan 10:15:23 10:18:10 17° 58° (ENE) 10:20:58 145.865
AAUSAT CUBESAT 2 20 Jan 10:18:07 10:19:46 12° 305° (NW) 10:21:25 437.432
Max Valier Satellite 20 Jan 10:20:20 10:24:03 62° 101° (ESE) 10:27:42 145.860
Oscar 11 20 Jan 10:23:02 10:26:31 24° 298° (WNW) 10:30:00 .
QB50P2 20 Jan 10:27:25 10:30:57 26° 63° (ENE) 10:34:30 145.880/145.840
SO-50 20 Jan 10:33:41 10:36:32 16° 0° (N) 10:39:24 436.795
BEESAT 3 20 Jan 10:34:13 10:38:01 45° 124° (SE) 10:41:51 437.485
EO-88 20 Jan 10:41:37 10:45:16 73° 102° (ESE) 10:48:53 145.990 - 145.960
TIGRISAT 20 Jan 10:45:43 10:48:33 16° 272° (W) 10:51:26 435.000
ESTCUBE 1 20 Jan 10:51:55 10:54:24 14° 87° (E) 10:56:51 437.505/2401.250
AIST 2D 20 Jan 10:57:33 11:01:03 64° 259° (WSW) 11:04:34 435.315
EO-79 20 Jan 10:58:06 11:02:06 43° 68° (ENE) 11:06:10 145.935-145.965
DUCHIFAT 1 20 Jan 10:58:23 11:02:12 35° 66° (ENE) 11:06:04 145.980
UNISAT 6 20 Jan 11:02:38 11:03:53 11° 276° (W) 11:05:09 437.425
DELFI C3 20 Jan 11:02:43 11:06:17 34° 293° (WNW) 11:09:51 145.870
PCSat 20 Jan 11:03:08 11:08:32 76° 124° (SE) 11:13:59 145.827
O/OREOS (USA 219) 20 Jan 11:13:41 11:17:48 36° 252° (WSW) 11:21:55 437.305
BEESAT 2 20 Jan 11:19:46 11:23:31 38° 122° (ESE) 11:27:17 435.950
HO-68 20 Jan 11:23:29 11:24:26 10° 331° (NNW) 11:25:24 435.675
PRISM 20 Jan 11:30:44 11:33:24 17° 269° (W) 11:36:04 437.425
POLYITAN 1 20 Jan 11:32:32 11:36:48 89° 255° (WSW) 11:41:07 437.675
Gurwin Techsat 1B 20 Jan 11:44:40 11:48:32 21° 55° (NE) 11:52:23 435.225
NANOSAT C BR1 20 Jan 11:49:12 11:53:24 69° 258° (WSW) 11:57:39 145.865
YUBILEINY 20 Jan 11:53:49 12:01:49 42° 275° (W) 12:09:46 435.215
Max Valier Satellite 20 Jan 11:55:15 11:57:25 15° 300° (WNW) 11:59:35 145.860
AO-7 20 Jan 11:59:26 12:04:45 19° 33° (NNE) 12:10:05 .
QB50P2 20 Jan 12:02:32 12:06:34 41° 262° (W) 12:10:38 145.880/145.840
BUGSAT 1 20 Jan 12:03:30 12:07:20 39° 68° (ENE) 12:11:14 437.445
LO-87 20 Jan 12:03:59 12:07:39 89° 109° (ESE) 12:11:16 145.935 - 145.965
Oscar 19 20 Jan 12:05:21 12:10:00 34° 62° (ENE) 12:14:41 437.125/150
BEESAT 3 20 Jan 12:12:03 12:15:41 32° 324° (NW) 12:19:18 437.485
SO-50 20 Jan 12:14:45 12:18:32 24° 25° (NNE) 12:22:21 436.795
AO-85 20 Jan 12:15:52 12:19:03 23° 115° (ESE) 12:22:25 145.980
EO-88 20 Jan 12:16:40 12:18:24 13° 301° (WNW) 12:20:07 145.990 - 145.960
ESTCUBE 1 20 Jan 12:27:16 12:31:48 80° 286° (WNW) 12:36:16 437.505/2401.250
RS-15 20 Jan 12:27:58 12:39:40 47° 344° (NNW) 12:50:58 29.354- 29.394
VELOX 1 20 Jan 12:31:32 12:34:46 20° 91° (E) 12:37:59 145.980
DUCHIFAT 1 20 Jan 12:34:12 12:37:54 29° 265° (W) 12:41:39 145.980
EO-79 20 Jan 12:34:37 12:38:03 24° 267° (W) 12:41:31 145.935-145.965
SPROUT 20 Jan 12:35:19 12:39:18 36° 97° (E) 12:43:16 437.525
PCSat 20 Jan 12:47:43 12:52:28 30° 326° (NW) 12:57:15 145.827
AO-91 20 Jan 12:52:59 12:56:22 74° 74° (ENE) 12:59:54 145.960
BEESAT 2 20 Jan 12:57:28 13:01:15 37° 322° (NW) 13:05:04 435.950
POLYITAN 1 20 Jan 13:11:45 13:13:14 12° 274° (W) 13:14:44 437.675
ITAMSAT 1 20 Jan 13:13:07 13:14:56 12° 47° (NE) 13:16:46 435.822/435.867
Gurwin Techsat 1B 20 Jan 13:22:34 13:27:53 81° 255° (WSW) 13:33:15 435.225
LO-87 20 Jan 13:39:21 13:40:26 11° 303° (WNW) 13:41:31 145.935 - 145.965
BUGSAT 1 20 Jan 13:39:26 13:42:49 25° 266° (W) 13:46:16 437.445
Oscar 19 20 Jan 13:44:18 13:49:14 43° 262° (W) 13:54:13 437.125/150
AO-7 20 Jan 13:47:46 13:55:44 52° 58° (ENE) 14:03:45 .
BEESAT 3 20 Jan 13:52:16 13:54:20 14° 347° (NNW) 13:56:23 437.485
SO-50 20 Jan 13:55:00 13:59:42 77° 47° (NE) 14:04:26 436.795
AO-85 20 Jan 13:55:02 13:59:04 58° 317° (NW) 14:03:28 145.980
50 SAT 20 Jan 13:57:05 13:59:34 21° 95° (E) 14:02:02 437.505
ESTCUBE 1 20 Jan 14:05:40 14:07:52 14° 306° (NW) 14:10:04 437.505/2401.250
VELOX 1 20 Jan 14:07:14 14:11:33 56° 290° (WNW) 14:15:51 145.980
SPROUT 20 Jan 14:11:21 14:15:06 30° 295° (WNW) 14:18:51 437.525
M-CUBED/EXP-1 PRIME 20 Jan 14:14:56 14:16:37 12° 50° (NE) 14:18:15 437.505
UKube-1 20 Jan 14:16:15 14:19:58 28° 95° (E) 14:23:41 .
MOZHAYETS 4 20 Jan 14:18:08 14:19:30 11° 84° (E) 14:20:51
DX 1 20 Jan 14:25:57 14:30:13 53° 101° (E) 14:34:29 434.975-435.025
PCSat 20 Jan 14:34:20 14:37:38 16° 351° (N) 14:40:56 145.827
BEESAT 2 20 Jan 14:37:42 14:40:02 15° 345° (NNW) 14:42:21 435.950
RS-15 20 Jan 14:43:43 14:55:19 47° 18° (NNE) 15:06:20 29.354- 29.394
ITAMSAT 1 20 Jan 14:48:19 14:53:20 54° 68° (ENE) 14:58:24 435.822/435.867
Gurwin Techsat 1B 20 Jan 15:05:58 15:08:42 14° 275° (W) 15:11:27 435.225
DOVE 4 20 Jan 15:13:36 15:16:53 22° 62° (ENE) 15:20:07 437.250
ITUPSAT 1 20 Jan 15:14:49 15:18:32 22° 91° (E) 15:22:14 437.325
50 SAT 20 Jan 15:28:37 15:31:17 26° 293° (WNW) 15:33:57 437.505
BEESAT 3 20 Jan 15:31:31 15:33:27 13° 11° (N) 15:35:20 437.485
SO-50 20 Jan 15:36:14 15:39:42 20° 246° (WSW) 15:43:11 436.795
AO-85 20 Jan 15:37:14 15:40:25 20° 341° (NNW) 15:43:47 145.980
AO-7 20 Jan 15:40:34 15:48:36 50° 259° (W) 15:56:43 .
M-CUBED/EXP-1 PRIME 20 Jan 15:46:09 15:50:25 72° 67° (ENE) 15:54:24 437.505
UKube-1 20 Jan 15:52:04 15:56:04 38° 294° (WNW) 16:00:04 .
MOZHAYETS 4 20 Jan 15:52:47 15:57:28 77° 103° (ESE) 16:02:05
CUBESAT XI-V 20 Jan 15:54:10 15:57:59 25° 92° (E) 16:01:46 437.345
BEESAT 20 Jan 15:54:30 15:59:09 47° 100° (E) 16:03:46 436.000
DX 1 20 Jan 16:02:45 16:06:06 22° 300° (WNW) 16:09:27 434.975-435.025
XW-2B 20 Jan 16:07:59 16:09:36 12° 57° (ENE) 16:11:13 145.730 - 145.750
CUTE-I 20 Jan 16:17:23 16:21:17 21° 55° (NE) 16:25:12 437.470
BEESAT 2 20 Jan 16:17:24 16:19:20 13° 9° (N) 16:21:17 435.950
PCSat 20 Jan 16:19:25 16:23:10 18° 18° (NNE) 16:26:56 145.827
ITAMSAT 1 20 Jan 16:28:49 16:33:07 26° 267° (W) 16:37:26 435.822/435.867
HO-68 20 Jan 16:32:44 16:38:19 25° 49° (NE) 16:43:53 435.675
LilacSat-2 20 Jan 16:33:23 16:36:26 23° 64° (ENE) 16:39:29 437.200
XW-2C 20 Jan 16:36:35 16:39:37 23° 64° (ENE) 16:42:38 145.795 - 145.815
DOVE 4 20 Jan 16:50:15 16:54:22 46° 261° (W) 16:58:24 437.250
ITUPSAT 1 20 Jan 16:51:59 16:56:44 59° 291° (WNW) 17:01:27 437.325
CUTE 1.7 + AOD 2 20 Jan 16:54:25 16:56:37 14° 56° (ENE) 16:58:50 437.475
RS-15 20 Jan 16:57:24 17:09:24 87° 49° (NE) 17:20:42 29.354- 29.394
CUBEBUG 2 20 Jan 16:59:37 17:01:23 12° 52° (NE) 17:03:09 437.445
BEESAT 3 20 Jan 17:08:39 17:12:10 29° 34° (NE) 17:15:36 437.485
KAITUO 1B 20 Jan 17:12:37 17:16:05 36° 68° (ENE) 17:19:33 145.475/437.950
XW-2F 20 Jan 17:12:52 17:16:32 46° 70° (ENE) 17:20:12 145.980 - 146.000
AO-85 20 Jan 17:19:42 17:22:30 16° 6° (N) 17:25:24 145.980
XW-2D 20 Jan 17:21:48 17:25:36 65° 73° (ENE) 17:29:24 145.860 - 145.880
M-CUBED/EXP-1 PRIME 20 Jan 17:22:36 17:25:09 15° 263° (W) 17:27:36 437.505
NUDT-PHONESAT 20 Jan 17:24:46 17:28:20 45° 71° (ENE) 17:31:56 437.300
KKS-1 20 Jan 17:27:14 17:31:12 31° 96° (E) 17:35:09 437.445
MOZHAYETS 4 20 Jan 17:30:57 17:34:04 18° 303° (WNW) 17:37:11
CUBESAT XI-V 20 Jan 17:31:08 17:35:35 47° 291° (WNW) 17:40:00 437.345
BEESAT 20 Jan 17:32:39 17:36:44 28° 299° (WNW) 17:40:48 436.000
XW-2B 20 Jan 17:39:21 17:43:11 86° 255° (WSW) 17:47:02 145.730 - 145.750
AO-7 20 Jan 17:42:10 17:43:36 10° 282° (WNW) 17:45:01 .
STARS 20 Jan 17:45:32 17:48:53 21° 92° (E) 17:52:12 437.465
BEESAT 2 20 Jan 17:54:50 17:58:20 27° 32° (NNE) 18:01:46 435.950
XW-2A 20 Jan 17:58:49 17:59:34 11° 58° (ENE) 18:00:19 145.665 - 145.685
